Ogallala, NE

3:22 PM MST on February 17, 2018 (GMT -0700)
Searle

Weather History for KOGA - September, 2012

Change the Weather History Date:

Monday, September 10, 2012

  Actual Average Record
Temperature  
Mean Temperature 74 °F -  
Max Temperature 98 °F 83 °F 100 °F (1979)
Min Temperature 50 °F 50 °F 27 °F (1962)
Cooling Degree Days 8    
Growing Degree Days 24 (Base 50)    
Moisture  
Dew Point 36 °F    
Average Humidity 32    
Maximum Humidity 71    
Minimum Humidity 8    
Precipitation  
Precipitation 0.00 in - - ()
Sea Level Pressure  
Sea Level Pressure 29.92 in    
Wind  
Wind Speed 5 mph (South)    
Max Wind Speed 18 mph    
Max Gust Speed 25 mph    
Visibility 10 miles    
Events      
Averages and records for this station are not official NWS values.
T = Trace of Precipitation, MM = Missing Value Source: NWS Daily Summary

Daily Weather History Graph

Daily Weather History Graph

Search for Another Location

Airport or City:

Trip Planner

Search our weather history database for the weather conditions in past years. The results will help you decide how hot, cold, wet, or windy it might be!

Date:

Astronomy

Sep. 10, 2012 Rise Set
Actual Time 6:23 AM MDT 7:03 PM MDT
Civil Twilight 5:55 AM MDT 7:31 PM MDT
Nautical Twilight 5:22 AM MDT 8:04 PM MDT
Astronomical Twilight 4:48 AM MDT 8:38 PM MDT
Moon 12:43 AM MDT (9/10) 3:37 PM MDT (9/10)
Length of Visible Light 13h 36m
Length of Day
12h 40m
Waning Crescent, 29% of the Moon is Illuminated
Sep 10
Waning Crescent
Sep 15
New
Sep 22
First Quarter
Sep 29
Full
Oct 8
Last Quarter

Hourly Weather History & Observations

Time (MDT) Temp. Dew Point Humidity Pressure Visibility Wind Dir Wind Speed Gust Speed Precip Events Conditions
12:15 AM 60.6 °F 42.3 °F 51% 30.06 in 10.0 mi Calm Calm - N/A   Clear
12:35 AM 58.8 °F 41.9 °F 53% 30.06 in 10.0 mi Calm Calm - N/A   Clear
12:55 AM 57.0 °F 41.9 °F 57% 30.06 in 10.0 mi WNW 3.5 mph - N/A   Clear
1:15 AM 56.5 °F 42.1 °F 59% 30.06 in 10.0 mi West 3.5 mph - N/A   Clear
1:35 AM 58.1 °F 42.8 °F 57% 30.05 in 10.0 mi Calm Calm - N/A   Clear
1:55 AM 57.6 °F 42.1 °F 56% 30.04 in 10.0 mi Calm Calm - N/A   Clear
2:15 AM 56.8 °F 42.1 °F 58% 30.03 in 10.0 mi Calm Calm - N/A   Clear
2:35 AM 57.4 °F 42.4 °F 57% 30.03 in 10.0 mi Calm Calm - N/A   Clear
2:55 AM 57.6 °F 42.4 °F 57% 30.02 in 10.0 mi Calm Calm - N/A   Clear
3:15 AM 57.6 °F 42.4 °F 57% 30.02 in 10.0 mi Calm Calm - N/A   Clear
3:35 AM 57.2 °F 42.4 °F 58% 30.01 in 10.0 mi Calm Calm - N/A   Clear
3:55 AM 56.3 °F 42.1 °F 59% 30.01 in 10.0 mi Calm Calm - N/A   Clear
4:15 AM 53.8 °F 41.5 °F 63% 30.00 in 10.0 mi ENE 4.6 mph - N/A   Clear
4:35 AM 53.4 °F 42.1 °F 65% 30.00 in 10.0 mi East 5.8 mph - N/A   Clear
4:55 AM 51.4 °F 41.4 °F 68% 30.00 in 10.0 mi Calm Calm - N/A   Clear
5:15 AM 54.0 °F 41.9 °F 64% 29.99 in 10.0 mi SE 5.8 mph - N/A   Clear
5:35 AM 52.7 °F 41.9 °F 67% 29.99 in 10.0 mi East 4.6 mph - N/A   Clear
5:55 AM 50.5 °F 41.5 °F 71% 29.98 in 10.0 mi Calm Calm - N/A   Clear
6:15 AM 52.0 °F 40.8 °F 66% 29.97 in 10.0 mi SSE 6.9 mph - N/A   Clear
6:35 AM 53.6 °F 40.3 °F 61% 29.97 in 10.0 mi Calm Calm - N/A   Clear
6:55 AM 54.3 °F 39.9 °F 58% 29.98 in 10.0 mi Calm Calm - N/A   Clear
7:15 AM 53.8 °F 40.3 °F 60% 29.98 in 10.0 mi WSW 4.6 mph - N/A   Clear
7:35 AM 55.9 °F 39.9 °F 55% 29.98 in 10.0 mi WSW 5.8 mph - N/A   Clear
7:55 AM 57.2 °F 40.1 °F 53% 29.97 in 10.0 mi SW 3.5 mph - N/A   Clear
8:15 AM 59.5 °F 40.1 °F 49% 29.97 in 10.0 mi WSW 3.5 mph - N/A   Clear
8:35 AM 61.9 °F 38.5 °F 42% 29.96 in 10.0 mi SSW 9.2 mph - N/A   Clear
8:55 AM 64.6 °F 38.7 °F 38% 29.96 in 10.0 mi SW 5.8 mph - N/A   Clear
9:15 AM 67.3 °F 37.4 °F 33% 29.96 in 10.0 mi SW 6.9 mph - N/A   Clear
9:35 AM 69.4 °F 36.9 °F 30% 29.95 in 10.0 mi SW 8.1 mph - N/A   Clear
9:55 AM 71.6 °F 37.6 °F 29% 29.95 in 10.0 mi SW 6.9 mph - N/A   Clear
10:15 AM 74.1 °F 37.4 °F 26% 29.95 in 10.0 mi SW 5.8 mph - N/A   Clear
10:35 AM 77.4 °F 37.9 °F 24% 29.95 in 10.0 mi South 6.9 mph - N/A   Clear
10:55 AM 79.0 °F 37.2 °F 22% 29.94 in 10.0 mi South 6.9 mph - N/A   Clear
11:15 AM 81.7 °F 36.9 °F 20% 29.93 in 10.0 mi SSW 3.5 mph - N/A   Clear
11:35 AM 84.4 °F 35.1 °F 17% 29.93 in 10.0 mi South 5.8 mph - N/A   Clear
11:55 AM 88.0 °F 33.3 °F 14% 29.92 in 10.0 mi SW 8.1 mph - N/A   Clear
12:15 PM 89.1 °F 34.0 °F 14% 29.91 in 10.0 mi South 8.1 mph - N/A   Clear
12:35 PM 92.3 °F 32.2 °F 12% 29.90 in 10.0 mi SW 5.8 mph - N/A   Clear
12:55 PM 93.0 °F 32.2 °F 12% 29.89 in 10.0 mi South 6.9 mph - N/A   Clear
1:15 PM 93.7 °F 32.0 °F 11% 29.88 in 10.0 mi South 8.1 mph - N/A   Clear
1:35 PM 95.4 °F 31.8 °F 11% 29.87 in 10.0 mi South 12.7 mph 16.1 mph N/A   Clear
1:55 PM 95.5 °F 32.4 °F 11% 29.86 in 10.0 mi SSW 10.4 mph 17.3 mph N/A   Clear
2:15 PM 96.3 °F 31.1 °F 10% 29.86 in 10.0 mi SSW 13.8 mph 18.4 mph N/A   Clear
2:35 PM 97.0 °F 30.2 °F 9% 29.85 in 10.0 mi SSW 10.4 mph 18.4 mph N/A   Clear
2:55 PM 97.2 °F 29.1 °F 9% 29.84 in 10.0 mi South 11.5 mph - N/A   Clear
3:15 PM 97.0 °F 30.7 °F 10% 29.84 in 10.0 mi SSW 9.2 mph 17.3 mph N/A   Clear
3:35 PM 97.9 °F 29.1 °F 9% 29.83 in 10.0 mi South 11.5 mph - N/A   Clear
3:55 PM 97.9 °F 28.6 °F 9% 29.83 in 10.0 mi South 5.8 mph - N/A   Clear
4:15 PM 97.9 °F 27.9 °F 8% 29.82 in 10.0 mi South 13.8 mph 18.4 mph N/A   Clear
4:35 PM 97.9 °F 27.5 °F 8% 29.82 in 10.0 mi South 10.4 mph 17.3 mph N/A   Clear
4:55 PM 97.7 °F 28.6 °F 9% 29.82 in 10.0 mi South 11.5 mph 17.3 mph N/A   Clear
5:15 PM 96.3 °F 30.0 °F 10% 29.82 in 10.0 mi South 12.7 mph 17.3 mph N/A   Clear
5:35 PM 96.3 °F 28.4 °F 9% 29.81 in 10.0 mi South 10.4 mph 17.3 mph N/A   Clear
5:55 PM 95.4 °F 28.8 °F 9% 29.81 in 10.0 mi South 9.2 mph - N/A   Clear
6:15 PM 92.3 °F 27.3 °F 10% 29.81 in 10.0 mi South 12.7 mph 17.3 mph N/A   Clear
6:35 PM 89.6 °F 25.0 °F 10% 29.81 in 10.0 mi South 16.1 mph 20.7 mph N/A   Clear
6:55 PM 87.6 °F 23.9 °F 10% 29.81 in 10.0 mi South 12.7 mph - N/A   Clear
7:15 PM 85.1 °F 23.9 °F 11% 29.81 in 10.0 mi South 11.5 mph - N/A   Clear
7:35 PM 83.1 °F 24.8 °F 12% 29.82 in 10.0 mi South 9.2 mph - N/A   Clear
7:55 PM 82.6 °F 27.3 °F 13% 29.82 in 10.0 mi South 13.8 mph - N/A   Clear
8:15 PM 82.6 °F 28.8 °F 14% 29.83 in 10.0 mi South 17.3 mph 23.0 mph N/A   Clear
8:35 PM 81.7 °F 30.0 °F 15% 29.83 in 10.0 mi South 18.4 mph 25.3 mph N/A   Clear
8:55 PM 80.6 °F 30.7 °F 16% 29.84 in 10.0 mi South 18.4 mph 23.0 mph N/A   Clear
9:15 PM 79.7 °F 32.2 °F 18% 29.84 in 10.0 mi South 16.1 mph 21.9 mph N/A   Clear
9:35 PM 79.3 °F 34.3 °F 20% 29.84 in 10.0 mi South 17.3 mph 23.0 mph N/A   Clear
9:55 PM 79.0 °F 36.9 °F 22% 29.85 in 10.0 mi South 16.1 mph 21.9 mph N/A   Clear
10:15 PM 77.9 °F 38.1 °F 24% 29.86 in 10.0 mi South 15.0 mph 21.9 mph N/A   Clear
10:35 PM 77.0 °F 39.2 °F 26% 29.86 in 10.0 mi South 15.0 mph 21.9 mph N/A   Clear
10:55 PM 76.1 °F 40.1 °F 27% 29.86 in 10.0 mi South 15.0 mph - N/A   Clear
11:15 PM 75.4 °F 41.0 °F 29% 29.86 in 10.0 mi South 15.0 mph - N/A   Clear
11:35 PM 75.2 °F 41.9 °F 30% 29.86 in 10.0 mi South 15.0 mph 20.7 mph N/A   Clear
11:55 PM 74.5 °F 42.6 °F 32% 29.86 in 10.0 mi South 15.0 mph 21.9 mph N/A   Clear